Simultaneous Nadir Overpasses (SNOs) Predictions

Prediction of SNOs between GOES-16 and METOP-C Satellite Orbit:

Table of predicted SNOs for the next 14.0 days since TLE Epoch: 12/4/2021
Index Date Time (GOES-16) GOES-16 Lat,Lon METOP-C Lat,Lon Distance(km) Time Diff (sec)
1 12/05/2021 02:20:29 0.04, -75.17 0.59, -72.73 277.91 80
2 12/06/2021 14:42:03 -0.04, -75.19 0.41, -77.30 240.75 80
3 12/07/2021 14:18:43 -0.04, -75.19 -0.69, -72.31 328.58 80
4 12/09/2021 02:40:23 0.03, -75.18 -0.35, -76.89 195.33 80
5 12/10/2021 02:17:03 0.03, -75.18 0.75, -71.89 374.53 80
6 12/11/2021 14:38:36 -0.03, -75.21 0.23, -76.46 142.43 80
7 12/12/2021 14:15:17 -0.02, -75.22 -0.87, -71.47 428.05 80
8 12/14/2021 02:36:56 0.02, -75.23 -0.18, -76.05 94.28 80
9 12/15/2021 02:13:38 0.02, -75.24 0.98, -71.07 476.51 80
10 12/16/2021 14:35:10 -0.02, -75.28 0.04, -75.63 39.30 80
